Ellensburg, WA

3:05 AM PST on January 18, 2018 (GMT -0800)
Bowers

Weather History for KELN - October, 2013

Change the Weather History Date:

Sunday, October 13, 2013

  Actual Average (KYKM) Record (KYKM)
Temperature  
Mean Temperature 46 °F -  
Max Temperature 63 °F 67 °F 80 °F (2015)
Min Temperature 30 °F 36 °F 23 °F (2002)
Degree Days  
Heating Degree Days 18    
Moisture  
Dew Point 34 °F    
Average Humidity 67    
Maximum Humidity 89    
Minimum Humidity 33    
Precipitation  
Precipitation 0.00 in - - ()
Sea Level Pressure  
Sea Level Pressure 30.26 in    
Wind  
Wind Speed 1 mph (NNW)    
Max Wind Speed 10 mph    
Max Gust Speed -    
Visibility 10 miles    
Events      
Averages and records for this station are not official NWS values.
T = Trace of Precipitation, MM = Missing Value Source: NWS Daily Summary

Daily Weather History Graph

Daily Weather History Graph

Search for Another Location

Airport or City:

Trip Planner

Search our weather history database for the weather conditions in past years. The results will help you decide how hot, cold, wet, or windy it might be!

Date:

Astronomy

Oct. 13, 2013 Rise Set
Actual Time 7:17 AM PDT 6:17 PM PDT
Civil Twilight 6:47 AM PDT 6:48 PM PDT
Nautical Twilight 6:11 AM PDT 7:23 PM PDT
Astronomical Twilight 5:36 AM PDT 7:58 PM PDT
Moon 3:30 PM PDT (10/13) 1:13 AM PDT (10/13)
Length of Visible Light 12h 01m
Length of Day
10h 59m
Waxing Gibbous, 70% of the Moon is Illuminated
Oct 13
Waxing Gibbous
Oct 18
Full
Oct 26
Last Quarter
Nov 3
New
Nov 9
First Quarter

Hourly Weather History & Observations

Time (PDT) Temp. Windchill Dew Point Humidity Pressure Visibility Wind Dir Wind Speed Gust Speed Precip Events Conditions
12:53 AM 35.1 °F - 30.9 °F 85% 30.18 in 10.0 mi Calm Calm - N/A   Clear
1:53 AM 35.1 °F - 30.9 °F 85% 30.20 in - Calm Calm - N/A   Clear
2:53 AM 34.0 °F - 30.0 °F 85% 30.21 in 10.0 mi Calm Calm - N/A   Clear
3:53 AM 32.0 °F - 28.9 °F 88% 30.22 in 10.0 mi Calm Calm - N/A   Clear
4:53 AM 32.0 °F - 28.0 °F 85% 30.23 in 10.0 mi Calm Calm - N/A   Clear
5:53 AM 30.9 °F 27.5 °F 28.0 °F 89% 30.25 in 10.0 mi NNE 3.5 mph - N/A   Clear
6:53 AM 30.9 °F - 28.0 °F 89% 30.26 in 10.0 mi Calm Calm - N/A   Clear
7:53 AM 30.9 °F - 28.0 °F 89% 30.29 in 10.0 mi Calm Calm - N/A   Clear
8:53 AM 39.9 °F - 35.1 °F 83% 30.29 in 10.0 mi Calm Calm - N/A   Clear
9:53 AM 45.0 °F - 37.0 °F 74% 30.30 in 10.0 mi Calm Calm - N/A   Clear
10:53 AM 51.1 °F - 37.9 °F 61% 30.29 in - Calm Calm - N/A   Clear
11:53 AM 55.0 °F - 39.0 °F 55% 30.27 in 10.0 mi East 4.6 mph - N/A   Clear
12:53 PM 59.0 °F - 37.9 °F 46% 30.25 in 10.0 mi Variable 3.5 mph - N/A   Clear
1:53 PM 60.1 °F - 35.1 °F 39% 30.23 in 10.0 mi Calm Calm - N/A   Clear
2:53 PM 62.1 °F - 33.1 °F 34% 30.22 in 10.0 mi Calm Calm - N/A   Clear
3:53 PM 63.0 °F - 33.1 °F 33% 30.22 in 10.0 mi Calm Calm - N/A   Partly Cloudy
4:53 PM 62.1 °F - 34.0 °F 35% 30.22 in 10.0 mi West 3.5 mph - N/A   Clear
5:53 PM 55.9 °F - 37.9 °F 51% 30.24 in 10.0 mi NW 8.1 mph - N/A   Clear
6:53 PM 53.1 °F - 36.0 °F 52% 30.26 in 10.0 mi North 9.2 mph - N/A   Clear
7:53 PM 50.0 °F - 37.0 °F 61% 30.29 in 10.0 mi NNW 10.4 mph - N/A   Clear
8:53 PM 46.9 °F - 37.0 °F 68% 30.30 in 10.0 mi NW 8.1 mph - N/A   Clear
9:53 PM 45.0 °F 43.5 °F 36.0 °F 71% 30.32 in 10.0 mi NW 3.5 mph - N/A   Mostly Cloudy
10:53 PM 41.0 °F - 34.0 °F 76% 30.33 in 10.0 mi Calm Calm - N/A   Clear
11:53 PM 39.0 °F - 33.1 °F 79% 30.34 in 10.0 mi Calm Calm - N/A   Clear